Sisseton, SD

11:59 AM CDT on June 25, 2017 (GMT -0500)
Sisseton

Weather History for K8D3 - December, 2012

Change the Weather History Date:

Monday, December 24, 2012

  Actual Average Record
Temperature  
Mean Temperature 0 °F 15 °F  
Max Temperature 6 °F 24 °F 50 °F (1994)
Min Temperature -7 °F 6 °F -25 °F (1983)
Degree Days  
Heating Degree Days 65 50  
Month to date heating degree days 1110 1132  
Since 1 July heating degree days 2953 2983  
Cooling Degree Days 0 0  
Month to date cooling degree days 0 0  
Year to date cooling degree days 712 527  
Moisture  
Dew Point -7 °F    
Average Humidity 80    
Maximum Humidity 87    
Minimum Humidity 72    
Precipitation  
Precipitation 0.01 in 0.01 in 0.34 in (2009)
Month to date precipitation 0.70 0.30  
Year to date precipitation 17.47 22.24  
Snow  
Snow 0.30 in - - ()
Month to date snowfall 8.2  
Since 1 July snowfall 8.2  
Snow Depth 5.00 in    
Sea Level Pressure  
Sea Level Pressure 30.38 in    
Wind  
Wind Speed 14 mph (NNW)    
Max Wind Speed 22 mph    
Max Gust Speed 24 mph    
T = Trace of Precipitation, MM = Missing Value Source: NWS Daily Summary

Daily Weather History Graph

Daily Weather History Graph

Search for Another Location

Airport or City:

Trip Planner

Search our weather history database for the weather conditions in past years. The results will help you decide how hot, cold, wet, or windy it might be!

Date:

Astronomy

Dec. 24, 2012 Rise Set
Actual Time 8:07 AM CST 4:48 PM CST
Civil Twilight 7:32 AM CST 5:23 PM CST
Nautical Twilight 6:55 AM CST 6:00 PM CST
Astronomical Twilight 6:18 AM CST 6:36 PM CST
Moon 2:20 PM CST (12/24) 4:42 AM CST (12/24)
Length of Visible Light 9h 50m
Length of Day
8h 41m
Waxing Gibbous, 88% of the Moon is Illuminated
Dec 24
Waxing Gibbous
Dec 28
Full
Jan 4
Last Quarter
Jan 11
New
Jan 18
First Quarter

Hourly Weather History & Observations

Time (CST) Temp. Windchill Dew Point Humidity Pressure Visibility Wind Dir Wind Speed Gust Speed Precip Events Conditions
12:56 AM 5.0 °F -13.0 °F 1.9 °F 87% 30.21 in - North 15.0 mph - N/A   Unknown
1:56 AM 5.0 °F -13.6 °F 1.0 °F 84% 30.22 in - North 16.1 mph - N/A   Unknown
2:56 AM 3.9 °F -14.3 °F -0.0 °F 84% 30.24 in - North 15.0 mph - 0.01 in   Unknown
3:56 AM 3.0 °F -17.3 °F -0.9 °F 84% 30.25 in - North 18.4 mph - N/A   Unknown
4:56 AM -0.0 °F -20.7 °F -4.0 °F 83% 30.27 in - North 17.3 mph - N/A   Unknown
5:56 AM -0.9 °F -21.2 °F -6.0 °F 79% 30.28 in - North 16.1 mph - N/A   Unknown
6:56 AM -2.9 °F -23.1 °F -7.1 °F 82% 30.31 in - NNW 15.0 mph - N/A   Unknown
7:56 AM -5.1 °F -26.6 °F -9.0 °F 83% 30.33 in - NNW 16.1 mph - N/A   Unknown
8:56 AM -5.1 °F -25.9 °F -9.9 °F 80% 30.36 in - North 15.0 mph - N/A   Unknown
9:56 AM -5.1 °F -26.6 °F -9.9 °F 80% 30.38 in - North 16.1 mph - N/A   Unknown
10:56 AM -4.0 °F -25.2 °F -9.9 °F 76% 30.39 in - North 16.1 mph - N/A   Unknown
11:56 AM -2.9 °F -23.1 °F -8.0 °F 79% 30.38 in - North 15.0 mph - N/A   Unknown
12:56 PM -2.0 °F -22.6 °F -7.1 °F 79% 30.38 in - North 16.1 mph - N/A   Unknown
1:56 PM -0.9 °F -21.9 °F -7.1 °F 75% 30.38 in - NNW 17.3 mph - N/A   Unknown
2:56 PM -0.9 °F -21.9 °F -8.0 °F 72% 30.38 in - NNW 17.3 mph - N/A   Unknown
3:56 PM -0.9 °F -21.2 °F -7.1 °F 75% 30.40 in - NNW 16.1 mph - N/A   Unknown
4:56 PM -2.9 °F -20.8 °F -8.0 °F 79% 30.43 in - North 11.5 mph - N/A   Unknown
5:56 PM -4.0 °F -21.2 °F -9.0 °F 79% 30.46 in - NNW 10.4 mph - N/A   Unknown
6:56 PM -4.0 °F -21.2 °F -9.0 °F 79% 30.48 in - North 10.4 mph - N/A   Unknown
7:56 PM -4.0 °F -20.2 °F -9.0 °F 79% 30.50 in - NNW 9.2 mph - N/A   Unknown
8:56 PM -4.0 °F -22.1 °F -9.0 °F 79% 30.51 in - NNW 11.5 mph - N/A   Unknown
9:56 PM -4.0 °F -20.2 °F -9.0 °F 79% 30.52 in - North 9.2 mph - N/A   Unknown
10:56 PM -6.0 °F -24.6 °F -9.9 °F 83% 30.53 in - North 11.5 mph - N/A   Unknown
11:56 PM -7.1 °F -22.8 °F -11.0 °F 83% 30.54 in - North 8.1 mph - N/A   Unknown